Retour au catalogue

STARLINK-33950

ActifCommunicationsVLEO
NORAD 63701·PAYLOAD·🇺🇸 United States

Lancé Apr 28, 2025 depuis Vandenberg Space Force Base

Loading…

Prochains Passages (prochaines 24 heures)

TLE

FraisSource: CelesTrak SupGP

Époque: Sep 14, 2026, 20:48 UTC

1 63701C 25087E   26257.86715278  .00013331  00000+0  42878-3 0  2574
2 63701  53.1588  59.7684 0001271  83.0533 101.5480 15.31689384    19

Suivez STARLINK-33950 en temps réel avec AllMySat

Download on the App Store